Stanton, MN

2:28 AM CST on December 16, 2019 (GMT -0600)
Stanton

Weather History for KSYN - October, 2019

Change the Weather History Date:

Thursday, October 31, 2019

  Actual Average (KLVN) Record (KLVN)
Temperature  
Mean Temperature 26 °F -  
Max Temperature 34 °F 53 °F 85 °F (1950)
Min Temperature 19 °F 34 °F 15 °F (1996)
Degree Days  
Heating Degree Days 38    
Moisture  
Dew Point 19 °F    
Average Humidity 72    
Maximum Humidity 91    
Minimum Humidity 54    
Precipitation  
Precipitation 0.00 in - - ()
Sea Level Pressure  
Sea Level Pressure 30.07 in    
Wind  
Wind Speed 4 mph ()    
Max Wind Speed 10 mph    
Max Gust Speed -    
Visibility 10.0 miles    
Events      
Averages and records for this station are not official NWS values.
T = Trace of Precipitation, MM = Missing Value Source: Averaged Metar Reports

Daily Weather History Graph

Daily Weather History Graph

Search for Another Location

Airport or City:

Astronomy

Oct. 31, 2019 Rise Set
Actual Time 7:47 AM CDT 6:02 PM CDT
Civil Twilight 7:17 AM CDT 6:33 PM CDT
Nautical Twilight 6:43 AM CDT 7:07 PM CDT
Astronomical Twilight 6:09 AM CDT 7:41 PM CDT
Moon 11:43 AM CDT (10/31) 8:52 PM CDT (10/31)
Length of Visible Light 11h 15m
Length of Day
10h 15m
Waxing Crescent, 16% of the Moon is Illuminated
Oct 31
Waxing Crescent
Nov 4
First Quarter
Nov 12
Full
Nov 19
Last Quarter
Nov 26
New

Hourly Weather History & Observations

Time (CDT) Temp. Windchill Dew Point Humidity Pressure Visibility Wind Dir Wind Speed Gust Speed Precip Events Conditions
12:15 AM 22.1 °F 14.7 °F 18.3 °F 85% 30.16 in 10.0 mi NW 5.8 mph - N/A   Clear
12:35 AM 21.0 °F 14.6 °F 17.8 °F 87% 30.15 in 10.0 mi NW 4.6 mph - N/A   Clear
12:55 AM 21.7 °F 17.0 °F 18.1 °F 86% 30.16 in 10.0 mi NW 3.5 mph - N/A   Clear
12:56 AM 21.9 °F 17.2 °F 18.1 °F 85% 30.16 in 10.0 mi NW 3.5 mph - N/A   Clear
1:15 AM 21.9 °F - 17.8 °F 84% 30.15 in 10.0 mi Calm Calm - N/A   Scattered Clouds
1:16 AM 21.7 °F - 17.6 °F 84% 30.15 in 10.0 mi Calm Calm - N/A   Scattered Clouds
1:35 AM 20.7 °F 15.8 °F 17.4 °F 87% 30.15 in 10.0 mi NW 3.5 mph - N/A   Scattered Clouds
1:36 AM 20.7 °F 15.8 °F 17.4 °F 87% 30.15 in 10.0 mi NW 3.5 mph - N/A   Scattered Clouds
1:55 AM 20.3 °F - 17.2 °F 88% 30.15 in 10.0 mi Calm Calm - N/A   Scattered Clouds
2:15 AM 19.4 °F 14.3 °F 17.1 °F 91% 30.14 in 10.0 mi South 3.5 mph - N/A   Scattered Clouds
2:35 AM 19.2 °F - 16.9 °F 91% 30.13 in 10.0 mi Calm Calm - N/A   Mostly Cloudy
2:55 AM 20.3 °F - 17.4 °F 89% 30.13 in 10.0 mi Calm Calm - N/A   Mostly Cloudy
2:56 AM 20.3 °F - 17.4 °F 89% 30.13 in 10.0 mi Calm Calm - N/A   Mostly Cloudy
3:15 AM 21.2 °F - 17.8 °F 87% 30.12 in 10.0 mi Calm Calm - N/A   Mostly Cloudy
3:35 AM 22.1 °F - 18.7 °F 87% 30.12 in 10.0 mi Calm Calm - N/A   Overcast
3:36 AM 22.1 °F - 18.9 °F 87% 30.12 in 10.0 mi Calm Calm - N/A   Overcast
3:55 AM 23.9 °F - 19.4 °F 83% 30.12 in 10.0 mi Calm Calm - N/A   Overcast
4:15 AM 24.6 °F - 20.1 °F 83% 30.12 in 10.0 mi Calm Calm - N/A   Overcast
4:35 AM 25.7 °F 20.1 °F 20.3 °F 80% 30.11 in 10.0 mi NNW 4.6 mph - N/A   Overcast
4:55 AM 26.4 °F 20.9 °F 19.9 °F 77% 30.11 in 10.0 mi North 4.6 mph - N/A   Overcast
5:15 AM 26.1 °F 19.4 °F 20.3 °F 79% 30.11 in 10.0 mi NNW 5.8 mph - N/A   Overcast
5:16 AM 26.1 °F 18.4 °F 20.1 °F 78% 30.11 in 10.0 mi NNW 6.9 mph - N/A   Overcast
5:35 AM 26.4 °F 19.8 °F 18.5 °F 72% 30.11 in 10.0 mi NNW 5.8 mph - N/A   Overcast
5:55 AM 26.2 °F 19.6 °F 19.4 °F 75% 30.11 in 10.0 mi NNW 5.8 mph - N/A   Overcast
5:56 AM 26.2 °F 19.6 °F 19.4 °F 75% 30.11 in 10.0 mi NNW 5.8 mph - N/A   Overcast
6:15 AM 26.4 °F 19.8 °F 19.0 °F 74% 30.11 in 10.0 mi North 5.8 mph - N/A   Overcast
6:35 AM 26.6 °F 18.2 °F 18.0 °F 70% 30.11 in 10.0 mi North 8.1 mph - N/A   Overcast
6:36 AM 26.4 °F 18.0 °F 18.0 °F 70% 30.11 in 10.0 mi North 8.1 mph - N/A   Overcast
6:55 AM 26.6 °F 19.1 °F 17.6 °F 69% 30.10 in 10.0 mi NNW 6.9 mph - N/A   Overcast
7:15 AM 26.6 °F 19.1 °F 17.4 °F 68% 30.10 in 10.0 mi North 6.9 mph - N/A   Overcast
7:35 AM 26.4 °F 18.0 °F 17.8 °F 70% 30.10 in 10.0 mi North 8.1 mph - N/A   Overcast
7:55 AM 26.4 °F 22.4 °F 18.0 °F 70% 30.10 in 10.0 mi NNW 3.5 mph - N/A   Overcast
7:56 AM 26.4 °F 22.4 °F 18.1 °F 71% 30.10 in 10.0 mi NNW 3.5 mph - N/A   Overcast
8:15 AM 26.6 °F 20.0 °F 18.3 °F 71% 30.10 in 10.0 mi NNW 5.8 mph - N/A   Overcast
8:35 AM 26.6 °F 20.0 °F 17.6 °F 69% 30.10 in 10.0 mi North 5.8 mph - N/A   Overcast
8:55 AM 27.0 °F 19.5 °F 17.8 °F 68% 30.10 in 10.0 mi North 6.9 mph - N/A   Overcast
9:15 AM 27.0 °F 18.7 °F 17.6 °F 68% 30.10 in 10.0 mi NNW 8.1 mph - N/A   Overcast
9:16 AM 27.0 °F 18.7 °F 17.6 °F 68% 30.10 in 10.0 mi North 8.1 mph - N/A   Overcast
9:35 AM 27.3 °F 18.4 °F 18.0 °F 68% 30.10 in 10.0 mi NW 9.2 mph - N/A   Overcast
9:36 AM 27.3 °F 19.1 °F 17.8 °F 67% 30.10 in 10.0 mi NW 8.1 mph - N/A   Overcast
9:55 AM 27.3 °F 19.1 °F 17.1 °F 65% 30.10 in 10.0 mi North 8.1 mph - N/A   Overcast
10:15 AM 27.5 °F 18.0 °F 17.6 °F 66% 30.09 in 10.0 mi NW 10.4 mph - N/A   Overcast
10:16 AM 27.5 °F 18.6 °F 17.6 °F 66% 30.09 in 10.0 mi NW 9.2 mph - N/A   Overcast
10:35 AM 27.9 °F 19.8 °F 18.0 °F 66% 30.09 in 10.0 mi NW 8.1 mph - N/A   Overcast
10:36 AM 27.9 °F 19.8 °F 18.0 °F 66% 30.09 in 10.0 mi NW 8.1 mph - N/A   Overcast
10:55 AM 28.2 °F 20.2 °F 17.8 °F 65% 30.09 in 10.0 mi NNW 8.1 mph - N/A   Overcast
10:56 AM 28.2 °F 20.2 °F 17.8 °F 65% 30.09 in 10.0 mi NNW 8.1 mph - N/A   Overcast
11:15 AM 28.4 °F 22.2 °F 17.4 °F 63% 30.08 in 10.0 mi WNW 5.8 mph - N/A   Overcast
11:35 AM 28.9 °F 20.4 °F 17.6 °F 63% 30.08 in 10.0 mi NW 9.2 mph - N/A   Overcast
11:55 AM 28.4 °F 20.4 °F 17.4 °F 63% 30.08 in 10.0 mi NW 8.1 mph - N/A   Mostly Cloudy
12:15 PM 29.3 °F 24.3 °F 17.8 °F 62% 30.08 in 10.0 mi NW 4.6 mph - N/A   Mostly Cloudy
12:35 PM 30.6 °F 23.1 °F 18.3 °F 60% 30.07 in 10.0 mi NW 8.1 mph - N/A   Mostly Cloudy
12:55 PM 31.1 °F 25.4 °F 18.5 °F 60% 30.06 in 10.0 mi NNW 5.8 mph - N/A   Clear
1:35 PM 31.1 °F 27.7 °F 18.0 °F 58% 30.05 in 10.0 mi West 3.5 mph - N/A   Scattered Clouds
1:36 PM 31.1 °F 26.4 °F 17.8 °F 58% 30.05 in 10.0 mi West 4.6 mph - N/A   Scattered Clouds
1:55 PM 32.0 °F 24.8 °F 18.9 °F 58% 30.04 in 10.0 mi West 8.1 mph - N/A   Scattered Clouds
1:56 PM 32.0 °F 26.4 °F 18.9 °F 58% 30.04 in 10.0 mi WNW 5.8 mph - N/A   Scattered Clouds
2:15 PM 32.4 °F 26.9 °F 18.7 °F 57% 30.04 in 10.0 mi NW 5.8 mph - N/A   Scattered Clouds
2:35 PM 32.9 °F 27.5 °F 18.5 °F 55% 30.03 in 10.0 mi West 5.8 mph - N/A   Clear
2:55 PM 33.6 °F 26.2 °F 18.9 °F 55% 30.03 in 10.0 mi West 9.2 mph - N/A   Scattered Clouds
3:15 PM 34.0 °F 28.0 °F 19.0 °F 54% 30.03 in 10.0 mi WNW 6.9 mph - N/A   Scattered Clouds
3:16 PM 34.0 °F 28.8 °F 18.9 °F 54% 30.03 in 10.0 mi WNW 5.8 mph - N/A   Scattered Clouds
3:35 PM 34.7 °F 26.9 °F 19.4 °F 54% 30.02 in 10.0 mi WNW 10.4 mph - N/A   Clear
3:55 PM 34.3 °F 27.0 °F 19.2 °F 54% 30.02 in 10.0 mi West 9.2 mph - N/A   Clear
4:15 PM 34.3 °F 28.4 °F 19.0 °F 54% 30.02 in 10.0 mi West 6.9 mph - N/A   Clear
4:35 PM 34.5 °F 29.4 °F 19.4 °F 54% 30.02 in 10.0 mi West 5.8 mph - N/A   Clear
4:55 PM 34.0 °F 28.8 °F 19.0 °F 54% 30.02 in 10.0 mi WSW 5.8 mph - N/A   Clear
5:15 PM 33.8 °F 27.0 °F 19.6 °F 56% 30.03 in 10.0 mi West 8.1 mph - N/A   Clear
5:16 PM 33.8 °F 27.7 °F 19.6 °F 56% 30.03 in 10.0 mi West 6.9 mph - N/A   Clear
5:35 PM 33.1 °F 27.7 °F 19.8 °F 58% 30.03 in 10.0 mi West 5.8 mph - N/A   Clear
5:55 PM 32.0 °F 28.7 °F 19.6 °F 60% 30.02 in 10.0 mi West 3.5 mph - N/A   Clear
5:56 PM 32.0 °F 28.7 °F 19.6 °F 60% 30.02 in 10.0 mi West 3.5 mph - N/A   Clear
6:15 PM 30.6 °F 27.1 °F 19.9 °F 65% 30.02 in 10.0 mi WSW 3.5 mph - N/A   Clear
6:16 PM 30.4 °F 26.9 °F 19.9 °F 65% 30.02 in 10.0 mi WSW 3.5 mph - N/A   Clear
6:35 PM 28.6 °F 24.8 °F 19.9 °F 70% 30.02 in 10.0 mi SSW 3.5 mph - N/A   Clear
6:36 PM 28.4 °F 24.6 °F 19.9 °F 71% 30.02 in 10.0 mi SSW 3.5 mph - N/A   Clear
6:55 PM 29.1 °F - 19.9 °F 69% 30.02 in 10.0 mi Calm Calm - N/A   Clear
6:56 PM 29.1 °F - 19.9 °F 69% 30.02 in 10.0 mi Calm Calm - N/A   Clear
7:15 PM 26.8 °F 22.8 °F 20.3 °F 77% 30.03 in 10.0 mi South 3.5 mph - N/A   Clear
7:16 PM 27.0 °F 23.0 °F 20.3 °F 76% 30.03 in 10.0 mi South 3.5 mph - N/A   Clear
7:35 PM 25.9 °F 20.3 °F 19.9 °F 78% 30.03 in 10.0 mi South 4.6 mph - N/A   Clear
7:36 PM 25.9 °F 20.3 °F 20.1 °F 79% 30.03 in 10.0 mi South 4.6 mph - N/A   Clear
7:55 PM 27.0 °F 23.0 °F 20.1 °F 75% 30.03 in 10.0 mi South 3.5 mph - N/A   Clear
7:56 PM 27.0 °F 23.0 °F 20.1 °F 75% 30.03 in 10.0 mi South 3.5 mph - N/A   Clear
8:15 PM 25.3 °F 19.7 °F 19.8 °F 79% 30.02 in 10.0 mi South 4.6 mph - N/A   Clear
8:35 PM 26.6 °F 20.0 °F 20.5 °F 78% 30.02 in 10.0 mi South 5.8 mph - N/A   Clear
8:55 PM 27.1 °F 19.7 °F 20.8 °F 77% 30.02 in 10.0 mi South 6.9 mph - N/A   Clear
9:15 PM 27.3 °F 19.9 °F 21.0 °F 77% 30.01 in 10.0 mi South 6.9 mph - N/A   Clear
9:35 PM 27.5 °F 22.2 °F 21.2 °F 77% 30.02 in 10.0 mi South 4.6 mph - N/A   Clear
9:36 PM 27.1 °F 23.2 °F 21.0 °F 78% 30.02 in 10.0 mi South 3.5 mph - N/A   Clear
9:55 PM 24.6 °F 18.8 °F 20.7 °F 85% 30.02 in 10.0 mi South 4.6 mph - N/A   Clear
10:15 PM 26.8 °F 19.3 °F 21.2 °F 79% 30.02 in 10.0 mi South 6.9 mph - N/A   Clear
10:16 PM 27.0 °F 19.5 °F 21.2 °F 79% 30.02 in 10.0 mi South 6.9 mph - N/A   Clear
10:35 PM 26.6 °F 19.1 °F 21.2 °F 80% 30.02 in 10.0 mi South 6.9 mph - N/A   Clear
10:36 PM 26.6 °F 19.1 °F 21.2 °F 80% 30.01 in 10.0 mi South 6.9 mph - N/A   Clear
10:55 PM 27.0 °F 19.5 °F 21.2 °F 79% 30.01 in 10.0 mi South 6.9 mph - N/A   Clear
10:56 PM 27.0 °F 19.5 °F 21.2 °F 79% 30.00 in 10.0 mi South 6.9 mph - N/A   Clear
11:15 PM 27.5 °F 18.6 °F 21.6 °F 78% 30.00 in 10.0 mi South 9.2 mph - N/A   Clear
11:35 PM 27.7 °F 19.6 °F 21.7 °F 78% 29.99 in 10.0 mi South 8.1 mph - N/A   Clear
11:36 PM 27.7 °F 19.6 °F 21.7 °F 78% 29.99 in 10.0 mi South 8.1 mph - N/A   Clear
11:55 PM 28.2 °F 24.4 °F 22.1 °F 78% 29.99 in 10.0 mi SSW 3.5 mph - N/A   Scattered Clouds